Time,TemperatureF,DewpointF,PressureIn,WindDirection,WindDirectionDegrees,WindSpeedMPH,WindSpeedGustMPH,Humidity,HourlyPrecipIn,Conditions,Clouds,dailyrainin,SoftwareType,DateUTC
2013-03-26 00:15:00,39.0,24.2,0.00,North,11,2.0,8.0,55,0.00,,,0.00,Weather View 32 v70,2013-03-26 04:15:00,
2013-03-26 00:30:00,38.5,24.6,0.00,NNE,28,0.0,8.0,57,0.00,,,0.00,Weather View 32 v70,2013-03-26 04:30:00,
2013-03-26 00:34:00,38.5,24.6,0.00,NNE,28,0.0,8.0,57,0.00,,,0.00,Weather View 32 v70,2013-03-26 04:34:00,
2013-03-26 00:45:00,38.1,24.6,0.00,NNE,28,0.0,5.0,58,0.00,,,0.00,Weather View 32 v70,2013-03-26 04:45:00,
2013-03-26 01:00:00,37.9,24.9,0.00,WSW,256,0.0,4.0,59,0.00,,,0.00,Weather View 32 v70,2013-03-26 05:00:00,
2013-03-26 01:15:00,38.1,25.0,0.00,NNW,341,0.0,4.0,59,0.00,,,0.00,Weather View 32 v70,2013-03-26 05:15:00,
2013-03-26 01:30:00,38.3,24.4,0.00,North,353,0.0,4.0,57,0.00,,,0.00,Weather View 32 v70,2013-03-26 05:30:00,
2013-03-26 01:45:00,38.5,23.7,0.00,North,0,0.0,4.0,55,0.00,,,0.00,Weather View 32 v70,2013-03-26 05:45:00,
2013-03-26 02:00:00,38.3,23.1,0.00,NNE,31,2.0,4.0,54,0.00,,,0.00,Weather View 32 v70,2013-03-26 06:00:00,
2013-03-26 02:15:00,38.3,22.6,0.00,NNE,20,3.0,4.0,53,0.00,,,0.00,Weather View 32 v70,2013-03-26 06:15:00,
2013-03-26 02:30:00,37.9,21.9,0.00,NNE,24,3.0,4.0,52,0.00,,,0.00,Weather View 32 v70,2013-03-26 06:30:00,
2013-03-26 02:35:00,37.9,21.9,0.00,NNE,24,3.0,4.0,52,0.00,,,0.00,Weather View 32 v70,2013-03-26 06:35:00,
2013-03-26 02:45:00,37.6,21.5,0.00,NNE,21,2.0,4.0,52,0.00,,,0.00,Weather View 32 v70,2013-03-26 06:45:00,
2013-03-26 03:00:00,37.4,21.4,0.00,NE,49,0.0,4.0,52,0.00,,,0.00,Weather View 32 v70,2013-03-26 07:00:00,
2013-03-26 03:15:00,36.9,21.3,0.00,NE,49,0.0,4.0,53,0.00,,,0.00,Weather View 32 v70,2013-03-26 07:15:00,
2013-03-26 03:30:00,37.0,22.4,0.00,NE,49,0.0,4.0,55,0.00,,,0.00,Weather View 32 v70,2013-03-26 07:30:00,
2013-03-26 03:36:00,37.0,22.4,0.00,NE,49,0.0,4.0,55,0.00,,,0.00,Weather View 32 v70,2013-03-26 07:36:00,
2013-03-26 03:45:00,37.2,22.1,0.00,NE,41,0.0,4.0,54,0.00,,,0.00,Weather View 32 v70,2013-03-26 07:45:00,
2013-03-26 04:00:00,37.4,21.4,0.00,NE,39,0.0,0.0,52,0.00,,,0.00,Weather View 32 v70,2013-03-26 08:00:00,
2013-03-26 04:15:00,37.4,20.4,0.00,NW,315,0.0,0.0,50,0.00,,,0.00,Weather View 32 v70,2013-03-26 08:15:00,
2013-03-26 04:30:00,36.3,20.4,0.00,NW,315,0.0,0.0,52,0.00,,,0.00,Weather View 32 v70,2013-03-26 08:30:00,
2013-03-26 04:36:00,36.3,20.4,0.00,NW,315,0.0,0.0,52,0.00,,,0.00,Weather View 32 v70,2013-03-26 08:36:00,
2013-03-26 04:45:00,36.3,20.4,0.00,NW,315,0.0,0.0,52,0.00,,,0.00,Weather View 32 v70,2013-03-26 08:45:00,
2013-03-26 05:00:00,36.3,20.4,0.00,North,7,0.0,3.0,52,0.00,,,0.00,Weather View 32 v70,2013-03-26 09:00:00,
2013-03-26 05:15:00,36.7,20.2,0.00,WNW,289,0.0,4.0,51,0.00,,,0.00,Weather View 32 v70,2013-03-26 09:15:00,
2013-03-26 05:30:00,36.7,20.2,0.00,West,278,0.0,4.0,51,0.00,,,0.00,Weather View 32 v70,2013-03-26 09:30:00,
2013-03-26 05:37:00,36.7,20.2,0.00,West,278,0.0,4.0,51,0.00,,,0.00,Weather View 32 v70,2013-03-26 09:37:00,
2013-03-26 05:45:00,35.8,19.9,0.00,WSW,238,0.0,4.0,52,0.00,,,0.00,Weather View 32 v70,2013-03-26 09:45:00,
2013-03-26 06:00:00,36.1,20.2,0.00,WSW,238,0.0,4.0,52,0.00,,,0.00,Weather View 32 v70,2013-03-26 10:00:00,
2013-03-26 06:15:00,36.7,20.7,0.00,WSW,238,0.0,3.0,52,0.00,,,0.00,Weather View 32 v70,2013-03-26 10:15:00,
2013-03-26 06:30:00,36.7,20.2,0.00,WSW,238,0.0,0.0,51,0.00,,,0.00,Weather View 32 v70,2013-03-26 10:30:00,
2013-03-26 06:38:00,36.7,20.2,0.00,WSW,238,0.0,0.0,51,0.00,,,0.00,Weather View 32 v70,2013-03-26 10:38:00,
2013-03-26 06:45:00,36.3,20.4,0.00,WSW,238,0.0,0.0,52,0.00,,,0.00,Weather View 32 v70,2013-03-26 10:45:00,
2013-03-26 07:00:00,36.1,20.2,0.00,WSW,238,0.0,0.0,52,0.00,,,0.00,Weather View 32 v70,2013-03-26 11:00:00,
2013-03-26 07:15:00,36.5,20.1,0.00,WSW,242,0.0,4.0,51,0.00,,,0.00,Weather View 32 v70,2013-03-26 11:15:00,
2013-03-26 07:30:00,36.9,20.4,0.00,WSW,242,2.0,4.0,51,0.00,,,0.00,Weather View 32 v70,2013-03-26 11:30:00,
2013-03-26 07:38:00,36.9,20.4,0.00,WSW,242,2.0,4.0,51,0.00,,,0.00,Weather View 32 v70,2013-03-26 11:38:00,
2013-03-26 07:45:00,37.0,20.6,0.00,WSW,242,0.0,4.0,51,0.00,,,0.00,Weather View 32 v70,2013-03-26 11:45:00,
2013-03-26 08:00:00,37.4,20.4,0.00,SW,226,0.0,4.0,50,0.00,,,0.00,Weather View 32 v70,2013-03-26 12:00:00,
2013-03-26 08:15:00,37.9,20.0,0.00,WSW,243,0.0,5.0,48,0.00,,,0.00,Weather View 32 v70,2013-03-26 12:15:00,
2013-03-26 08:30:00,38.8,20.3,0.00,SW,233,5.0,5.0,47,0.00,,,0.00,Weather View 32 v70,2013-03-26 12:30:00,
2013-03-26 08:39:00,38.8,20.3,0.00,SW,233,5.0,5.0,47,0.00,,,0.00,Weather View 32 v70,2013-03-26 12:39:00,
2013-03-26 08:45:00,39.7,20.1,0.00,NNW,346,2.0,6.0,45,0.00,,,0.00,Weather View 32 v70,2013-03-26 12:45:00,
2013-03-26 09:00:00,40.3,19.5,0.00,NW,313,3.0,8.0,43,0.00,,,0.00,Weather View 32 v70,2013-03-26 13:00:00,
2013-03-26 09:15:00,41.0,19.1,0.00,WNW,282,2.0,8.0,41,0.00,,,0.00,Weather View 32 v70,2013-03-26 13:15:00,
2013-03-26 09:30:00,42.3,19.6,0.00,NW,322,2.0,8.0,40,0.00,,,0.00,Weather View 32 v70,2013-03-26 13:30:00,
2013-03-26 09:39:00,42.3,19.6,0.00,NW,322,2.0,8.0,40,0.00,,,0.00,Weather View 32 v70,2013-03-26 13:39:00,
2013-03-26 09:45:00,43.2,20.4,0.00,North,10,3.0,8.0,40,0.00,,,0.00,Weather View 32 v70,2013-03-26 13:45:00,
2013-03-26 10:00:00,44.2,20.8,0.00,NNW,343,4.0,8.0,39,0.00,,,0.00,Weather View 32 v70,2013-03-26 14:00:00,
2013-03-26 10:15:00,47.3,22.3,0.00,NW,309,8.0,11.0,37,0.00,,,0.00,Weather View 32 v70,2013-03-26 14:15:00,
2013-03-26 10:30:00,48.0,22.9,0.00,North,357,4.0,11.0,37,0.00,,,0.00,Weather View 32 v70,2013-03-26 14:30:00,
2013-03-26 10:45:00,49.6,21.7,0.00,NNW,335,4.0,11.0,33,0.00,,,0.00,Weather View 32 v70,2013-03-26 14:45:00,
2013-03-26 11:00:00,49.5,20.8,0.00,NNW,333,8.0,13.0,32,0.00,,,0.00,Weather View 32 v70,2013-03-26 15:00:00,
2013-03-26 11:15:00,49.6,20.2,0.00,NW,316,4.0,13.0,31,0.00,,,0.00,Weather View 32 v70,2013-03-26 15:15:00,
2013-03-26 11:30:00,50.7,21.9,0.00,North,9,6.0,13.0,32,0.00,,,0.00,Weather View 32 v70,2013-03-26 15:30:00,
2013-03-26 11:45:00,50.2,21.4,0.00,North,8,6.0,13.0,32,0.00,,,0.00,Weather View 32 v70,2013-03-26 15:45:00,
2013-03-26 12:00:00,51.3,20.0,0.00,North,349,4.0,11.0,29,0.00,,,0.00,Weather View 32 v70,2013-03-26 16:00:00,
2013-03-26 12:15:00,51.3,20.0,0.00,NW,314,5.0,11.0,29,0.00,,,0.00,Weather View 32 v70,2013-03-26 16:15:00,
2013-03-26 12:30:00,52.9,19.8,0.00,NNW,342,6.0,11.0,27,0.00,,,0.00,Weather View 32 v70,2013-03-26 16:30:00,
2013-03-26 12:45:00,54.1,20.8,0.00,WNW,294,11.0,11.0,27,0.00,,,0.00,Weather View 32 v70,2013-03-26 16:45:00,
2013-03-26 13:00:00,55.4,21.0,0.00,NNW,338,5.0,11.0,26,0.00,,,0.00,Weather View 32 v70,2013-03-26 17:00:00,
2013-03-26 13:15:00,54.5,20.3,0.00,North,0,6.0,13.0,26,0.00,,,0.00,Weather View 32 v70,2013-03-26 17:15:00,
2013-03-26 13:30:00,53.4,19.3,0.00,NW,325,5.0,13.0,26,0.00,,,0.00,Weather View 32 v70,2013-03-26 17:30:00,
2013-03-26 13:45:00,54.0,19.8,0.00,NW,325,4.0,14.0,26,0.00,,,0.00,Weather View 32 v70,2013-03-26 17:45:00,
2013-03-26 14:00:00,51.3,18.4,0.00,NW,325,6.0,14.0,27,0.00,,,0.00,Weather View 32 v70,2013-03-26 18:00:00,
2013-03-26 14:15:00,56.3,20.9,0.00,NNE,13,8.0,14.0,25,0.00,,,0.00,Weather View 32 v70,2013-03-26 18:15:00,
2013-03-26 14:30:00,51.8,18.8,0.00,North,0,5.0,14.0,27,0.00,,,0.00,Weather View 32 v70,2013-03-26 18:30:00,
2013-03-26 14:45:00,52.7,19.6,0.00,NNE,12,3.0,11.0,27,0.00,,,0.00,Weather View 32 v70,2013-03-26 18:45:00,
2013-03-26 15:00:00,52.7,18.7,0.00,North,0,8.0,11.0,26,0.00,,,0.00,Weather View 32 v70,2013-03-26 19:00:00,
2013-03-26 15:15:00,52.0,18.1,0.00,North,353,4.0,12.0,26,0.00,,,0.00,Weather View 32 v70,2013-03-26 19:15:00,
2013-03-26 15:30:00,56.7,21.2,0.00,North,0,6.0,12.0,25,0.00,,,0.00,Weather View 32 v70,2013-03-26 19:30:00,
2013-03-26 15:45:00,51.6,18.7,0.00,NNW,343,6.0,12.0,27,0.00,,,0.00,Weather View 32 v70,2013-03-26 19:45:00,
2013-03-26 16:00:00,55.4,20.1,0.00,NW,321,6.0,13.0,25,0.00,,,0.00,Weather View 32 v70,2013-03-26 20:00:00,
2013-03-26 16:15:00,52.7,19.6,0.00,North,349,4.0,13.0,27,0.00,,,0.00,Weather View 32 v70,2013-03-26 20:15:00,
2013-03-26 16:30:00,50.4,20.0,0.00,North,353,3.0,13.0,30,0.00,,,0.00,Weather View 32 v70,2013-03-26 20:30:00,
2013-03-26 16:45:00,50.2,19.9,0.00,North,11,5.0,13.0,30,0.00,,,0.00,Weather View 32 v70,2013-03-26 20:45:00,
2013-03-26 17:00:00,53.8,20.5,0.00,WNW,284,3.0,11.0,27,0.00,,,0.00,Weather View 32 v70,2013-03-26 21:00:00,
2013-03-26 17:15:00,54.0,22.4,0.00,North,0,4.0,15.0,29,0.00,,,0.00,Weather View 32 v70,2013-03-26 21:15:00,
2013-03-26 17:30:00,56.1,21.6,0.00,West,267,6.0,15.0,26,0.00,,,0.00,Weather View 32 v70,2013-03-26 21:30:00,
2013-03-26 17:45:00,51.4,19.4,0.00,NNW,334,3.0,15.0,28,0.00,,,0.00,Weather View 32 v70,2013-03-26 21:45:00,
2013-03-26 18:00:00,49.3,17.5,0.00,North,6,4.0,15.0,28,0.00,,,0.00,Weather View 32 v70,2013-03-26 22:00:00,
2013-03-26 18:15:00,47.8,17.9,0.00,NNE,13,4.0,14.0,30,0.00,,,0.00,Weather View 32 v70,2013-03-26 22:15:00,
2013-03-26 18:30:00,47.3,18.1,0.00,North,5,3.0,14.0,31,0.00,,,0.00,Weather View 32 v70,2013-03-26 22:30:00,
2013-03-26 18:45:00,47.1,17.2,0.00,NW,305,4.0,14.0,30,0.00,,,0.00,Weather View 32 v70,2013-03-26 22:45:00,
2013-03-26 19:00:00,46.6,16.8,0.00,West,279,3.0,14.0,30,0.00,,,0.00,Weather View 32 v70,2013-03-26 23:00:00,
2013-03-26 19:15:00,45.9,16.9,0.00,NNW,333,0.0,8.0,31,0.00,,,0.00,Weather View 32 v70,2013-03-26 23:15:00,
2013-03-26 19:30:00,45.1,16.3,0.00,NNW,327,3.0,7.0,31,0.00,,,0.00,Weather View 32 v70,2013-03-26 23:30:00,
2013-03-26 19:45:00,44.6,16.5,0.00,NW,321,2.0,6.0,32,0.00,,,0.00,Weather View 32 v70,2013-03-26 23:45:00,
2013-03-26 20:00:00,44.1,16.8,0.00,NNW,338,3.0,6.0,33,0.00,,,0.00,Weather View 32 v70,2013-03-27 00:00:00,
2013-03-26 20:15:00,43.7,17.8,0.00,NW,325,3.0,6.0,35,0.00,,,0.00,Weather View 32 v70,2013-03-27 00:15:00,
2013-03-26 20:30:00,43.2,17.3,0.00,NW,310,0.0,6.0,35,0.00,,,0.00,Weather View 32 v70,2013-03-27 00:30:00,
2013-03-26 20:45:00,42.8,18.9,0.00,WNW,294,2.0,6.0,38,0.00,,,0.00,Weather View 32 v70,2013-03-27 00:45:00,
2013-03-26 21:00:00,42.3,18.4,0.00,NW,321,0.0,6.0,38,0.00,,,0.00,Weather View 32 v70,2013-03-27 01:00:00,
2013-03-26 21:15:00,42.1,18.3,0.00,NNW,330,0.0,5.0,38,0.00,,,0.00,Weather View 32 v70,2013-03-27 01:15:00,
2013-03-26 21:30:00,41.7,17.9,0.00,NNW,332,0.0,5.0,38,0.00,,,0.00,Weather View 32 v70,2013-03-27 01:30:00,
2013-03-26 21:45:00,41.4,17.6,0.00,NW,326,0.0,5.0,38,0.00,,,0.00,Weather View 32 v70,2013-03-27 01:45:00,
2013-03-26 22:00:00,40.8,18.3,0.00,North,2,0.0,5.0,40,0.00,,,0.00,Weather View 32 v70,2013-03-27 02:00:00,
2013-03-26 22:15:00,40.5,17.4,0.00,North,0,0.0,4.0,39,0.00,,,0.00,Weather View 32 v70,2013-03-27 02:15:00,
2013-03-26 22:30:00,40.1,17.7,0.00,NNW,336,2.0,4.0,40,0.00,,,0.00,Weather View 32 v70,2013-03-27 02:30:00,
2013-03-26 22:45:00,39.9,17.5,0.00,NW,325,0.0,4.0,40,0.00,,,0.00,Weather View 32 v70,2013-03-27 02:45:00,
2013-03-26 23:00:00,39.4,17.0,0.00,NW,310,0.0,4.0,40,0.00,,,0.00,Weather View 32 v70,2013-03-27 03:00:00,
2013-03-26 23:15:00,38.8,17.1,0.00,WNW,289,0.0,4.0,41,0.00,,,0.00,Weather View 32 v70,2013-03-27 03:15:00,
2013-03-26 23:30:00,38.7,17.5,0.00,WNW,290,0.0,4.0,42,0.00,,,0.00,Weather View 32 v70,2013-03-27 03:30:00,
2013-03-26 23:45:00,38.3,17.7,0.00,WNW,289,0.0,3.0,43,0.00,,,0.00,Weather View 32 v70,2013-03-27 03:45:00,